Heute – Wetterdaten der letzten 3 Stunden im 5 Min. Intervall

Wetterdaten der letzten 3 Stunden im 5 Min. Intervall
DatumAussentemperaturLuftdruckLuftfeuchtigkeitWindstärke Regen
23.08.19, 22:30 21.1 °C 1022.5 hPa 65 % 0.0 km/h 0.0 mm
23.08.19, 22:25 21.1 °C 1022.6 hPa 64 % 0.0 km/h 0.0 mm
23.08.19, 22:20 21.2 °C 1022.6 hPa 64 % 0.0 km/h 0.0 mm
23.08.19, 22:15 21.3 °C 1022.6 hPa 64 % 0.0 km/h 0.0 mm
23.08.19, 22:10 21.3 °C 1022.7 hPa 64 % 0.0 km/h 0.0 mm
23.08.19, 22:05 21.4 °C 1022.6 hPa 64 % 0.0 km/h 0.0 mm
23.08.19, 21:55 21.6 °C 1022.7 hPa 64 % 0.0 km/h 0.0 mm
23.08.19, 21:50 21.6 °C 1022.7 hPa 63 % 0.0 km/h 0.0 mm
23.08.19, 21:45 21.8 °C 1022.7 hPa 63 % 0.0 km/h 0.0 mm
23.08.19, 21:40 21.9 °C 1022.7 hPa 62 % 0.0 km/h 0.0 mm
23.08.19, 21:35 22.1 °C 1022.8 hPa 61 % 0.0 km/h 0.0 mm
23.08.19, 21:30 22.3 °C 1022.7 hPa 61 % 0.0 km/h 0.0 mm
23.08.19, 21:25 22.5 °C 1022.8 hPa 60 % 0.0 km/h 0.0 mm
23.08.19, 21:20 22.7 °C 1022.7 hPa 59 % 0.0 km/h 0.0 mm
23.08.19, 21:15 22.8 °C 1022.8 hPa 59 % 0.0 km/h 0.0 mm
23.08.19, 21:10 23.0 °C 1022.7 hPa 58 % 0.0 km/h 0.0 mm
23.08.19, 21:05 23.2 °C 1022.8 hPa 58 % 0.0 km/h 0.0 mm
23.08.19, 21:00 23.4 °C 1022.8 hPa 57 % 0.0 km/h 0.0 mm
23.08.19, 20:55 23.6 °C 1022.8 hPa 56 % 0.0 km/h 0.0 mm
23.08.19, 20:50 23.8 °C 1022.7 hPa 56 % 0.0 km/h 0.0 mm
23.08.19, 20:45 24.0 °C 1022.8 hPa 55 % 0.0 km/h 0.0 mm
23.08.19, 20:40 24.2 °C 1022.7 hPa 54 % 0.0 km/h 0.0 mm
23.08.19, 20:35 24.4 °C 1022.7 hPa 54 % 1.8 km/h 0.0 mm
23.08.19, 20:30 24.6 °C 1022.7 hPa 53 % 0.0 km/h 0.0 mm
23.08.19, 20:25 24.8 °C 1022.7 hPa 53 % 1.8 km/h 0.0 mm
23.08.19, 20:20 25.0 °C 1022.6 hPa 52 % 0.0 km/h 0.0 mm
23.08.19, 20:15 25.3 °C 1022.5 hPa 51 % 3.2 km/h 0.0 mm
23.08.19, 20:10 25.6 °C 1022.6 hPa 50 % 0.0 km/h 0.0 mm
23.08.19, 20:05 25.9 °C 1022.5 hPa 49 % 0.0 km/h 0.0 mm
23.08.19, 19:55 26.5 °C 1022.6 hPa 47 % 1.8 km/h 0.0 mm
23.08.19, 19:50 27.0 °C 1022.6 hPa 46 % 0.0 km/h 0.0 mm
23.08.19, 19:45 27.2 °C 1022.6 hPa 46 % 1.8 km/h 0.0 mm
23.08.19, 19:40 27.3 °C 1022.5 hPa 45 % 3.2 km/h 0.0 mm
23.08.19, 19:35 27.4 °C 1022.6 hPa 45 % 0.0 km/h 0.0 mm